TimeAKDT,TemperatureF,Dew PointF,Humidity,Sea Level PressureIn,VisibilityMPH,Wind Direction,Wind SpeedMPH,Gust SpeedMPH,PrecipitationIn,Events,Conditions,WindDirDegrees,DateUTC
12:53 AM,55.9,48.9,77,29.76,10.0,NW,8.1,-,N/A,,Overcast,310,2013-08-27 08:53:00
1:53 AM,55.9,48.0,75,29.77,10.0,NW,10.4,-,N/A,,Overcast,310,2013-08-27 09:53:00
2:53 AM,55.9,48.0,75,29.77,10.0,NW,9.2,-,N/A,,Overcast,310,2013-08-27 10:53:00
3:53 AM,57.0,48.0,72,29.78,10.0,WNW,10.4,-,N/A,,Overcast,300,2013-08-27 11:53:00
4:53 AM,57.0,48.0,72,29.79,10.0,NW,8.1,-,N/A,,Overcast,320,2013-08-27 12:53:00
5:53 AM,57.0,48.0,72,29.80,10.0,WNW,11.5,19.6,N/A,,Overcast,300,2013-08-27 13:53:00
6:53 AM,55.9,48.0,75,29.81,10.0,WNW,15.0,-,N/A,,Overcast,290,2013-08-27 14:53:00
7:53 AM,55.9,48.0,75,29.82,10.0,WNW,6.9,-,N/A,,Overcast,300,2013-08-27 15:53:00
8:53 AM,57.0,46.9,69,29.81,10.0,NW,8.1,-,N/A,,Mostly Cloudy,320,2013-08-27 16:53:00
9:53 AM,59.0,46.9,64,29.82,10.0,WNW,9.2,-,N/A,,Mostly Cloudy,300,2013-08-27 17:53:00
10:53 AM,61.0,48.0,62,29.82,10.0,WNW,12.7,-,N/A,,Mostly Cloudy,290,2013-08-27 18:53:00
11:53 AM,63.0,46.9,56,29.83,10.0,WNW,13.8,-,N/A,,Mostly Cloudy,300,2013-08-27 19:53:00
12:53 PM,64.0,45.0,50,29.84,10.0,WNW,10.4,-,N/A,,Mostly Cloudy,300,2013-08-27 20:53:00
1:53 PM,64.9,46.0,50,29.84,10.0,NW,5.8,-,N/A,,Mostly Cloudy,320,2013-08-27 21:53:00
2:53 PM,66.0,46.9,50,29.83,10.0,Variable,4.6,-,N/A,,Mostly Cloudy,0,2013-08-27 22:53:00
3:53 PM,61.0,48.0,62,29.83,10.0,East,5.8,-,N/A,,Mostly Cloudy,100,2013-08-27 23:53:00
4:53 PM,62.1,46.9,58,29.84,10.0,Calm,Calm,-,N/A,,Mostly Cloudy,0,2013-08-28 00:53:00
5:53 PM,61.0,46.9,60,29.84,10.0,NE,3.5,-,N/A,,Overcast,40,2013-08-28 01:53:00
6:53 PM,59.0,48.9,69,29.83,10.0,East,3.5,-,N/A,,Overcast,90,2013-08-28 02:53:00
7:53 PM,59.0,48.0,67,29.83,10.0,Calm,Calm,-,N/A,,Overcast,0,2013-08-28 03:53:00
8:53 PM,59.0,50.0,72,29.82,10.0,NW,5.8,-,N/A,,Overcast,310,2013-08-28 04:53:00
9:53 PM,59.0,50.0,72,29.82,10.0,Calm,Calm,-,N/A,,Overcast,0,2013-08-28 05:53:00
10:53 PM,57.9,50.0,75,29.82,10.0,NNW,5.8,-,N/A,,Overcast,330,2013-08-28 06:53:00
11:53 PM,57.0,48.9,74,29.82,10.0,North,3.5,-,N/A,,Overcast,350,2013-08-28 07:53:00